Location: Brienzwiler
(46.7508°N, 8.1014°E)
Time: 01:32:38
(UTC+00:00)

NOSS 3-3 (C) - Pass Details

Date: 05 July 2020
Orbit: 824 x 1388 km, 63.4° (Epoch: 03 August)

Event Time Altitude Azimuth Distance (km) Brightness Sun altitude
Rises 20:26:11 0° 188° (S) 3,385 6.5 -8.9°
Reaches altitude 10° 20:28:43 10° 179° (S) 2,492 5.7 -9.2°
Maximum altitude 20:33:52 35° 115° (ESE) 1,439 4.5 -9.7°
Drops below altitude 10° 20:39:34 10° 52° (NE) 2,773 6.4 -10.4°
Sets 20:42:32 0° 44° (NE) 3,819 7.2 -10.7°
